When you browse on this site, cookies collect data to enhance your experience and personalize the content and advertising you see.
Visit our Privacy Policy to learn more. By continuing to use the site, you agree to this use of cookies and data.
  • In Portugal
  • List of Countries
  • For 7 days
  • Water Temperature
  • Weather Map
  • Weather Widgets
  • user-avatar
    Login

    Hourly Weather Chervlennye Buruny

    Today, 21 August, Wednesday

    Time Temperature Precipitation Wind Pressure Humidity
    00:00 +27°C° 0 mm 5 mps 756 mmHg 45%
    01:00 +26°C° 0 mm 5 mps 756 mmHg 48%
    02:00 +26°C° 0 mm 4 mps 756 mmHg 51%
    03:00 +25°C° 0 mm 4 mps 756 mmHg 54%
    04:00 +25°C° 0 mm 3 mps 756 mmHg 55%
    05:00 +25°C° 0 mm 3 mps 756 mmHg 57%
    06:00 +24°C° 0 mm 3 mps 756 mmHg 58%
    07:00 +26°C° 0 mm 4 mps 756 mmHg 52%
    08:00 +28°C° 0 mm 4 mps 756 mmHg 45%
    09:00 +30°C° 0 mm 4 mps 756 mmHg 39%
    10:00 +34°C° 0 mm 5 mps 756 mmHg 33%
    11:00 +36°C° 0 mm 5 mps 755 mmHg 27%
    12:00 +39°C° 0 mm 5 mps 755 mmHg 21%
    13:00 +40°C° 0 mm 5 mps 755 mmHg 20%
    14:00 +41°C° 0 mm 6 mps 754 mmHg 18%
    15:00 +42°C° 0 mm 6 mps 754 mmHg 16%
    16:00 +40°C° 0 mm 6 mps 754 mmHg 16%
    17:00 +39°C° 0 mm 7 mps 753 mmHg 17%
    18:00 +38°C° 0 mm 7 mps 753 mmHg 18%
    19:00 +35°C° 0 mm 7 mps 753 mmHg 25%
    20:00 +32°C° 0 mm 6 mps 754 mmHg 31%
    21:00 +29°C° 0 mm 6 mps 754 mmHg 38%
    22:00 +28°C° 0 mm 5 mps 754 mmHg 43%
    23:00 +27°C° 0 mm 5 mps 753 mmHg 49%

    Tomorrow, 22 August, Thursday

    Time Temperature Precipitation Wind Pressure Humidity
    00:00 +27°C° 0 mm 4 mps 753 mmHg 54%
    01:00 +26°C° 0 mm 4 mps 753 mmHg 55%
    02:00 +26°C° 0 mm 4 mps 753 mmHg 55%
    03:00 +25°C° 0 mm 4 mps 753 mmHg 56%
    04:00 +25°C° 0 mm 4 mps 753 mmHg 56%
    05:00 +25°C° 0 mm 4 mps 753 mmHg 55%
    06:00 +25°C° 0 mm 3 mps 753 mmHg 54%
    07:00 +28°C° 0 mm 4 mps 753 mmHg 46%
    08:00 +30°C° 0 mm 4 mps 753 mmHg 37%
    09:00 +34°C° 0 mm 5 mps 753 mmHg 28%
    10:00 +36°C° 0 mm 6 mps 753 mmHg 24%
    11:00 +39°C° 0 mm 6 mps 753 mmHg 20%
    12:00 +41°C° 0 mm 7 mps 753 mmHg 16%
    13:00 +41°C° 0 mm 8 mps 752 mmHg 16%
    14:00 +42°C° 0 mm 9 mps 752 mmHg 15%
    15:00 +43°C° 0 mm 9 mps 752 mmHg 15%
    16:00 +40°C° 0 mm 9 mps 752 mmHg 18%
    17:00 +38°C° 0 mm 8 mps 752 mmHg 20%
    18:00 +37°C° 0 mm 8 mps 752 mmHg 23%
    19:00 +34°C° 0 mm 7 mps 753 mmHg 29%
    20:00 +32°C° 0 mm 7 mps 753 mmHg 35%
    21:00 +29°C° 0 mm 6 mps 753 mmHg 41%
    22:00 +29°C° 0 mm 5 mps 753 mmHg 44%
    23:00 +28°C° 0 mm 5 mps 753 mmHg 47%

    Day after tomorrow, 23 August, Friday

    Time Temperature Precipitation Wind Pressure Humidity
    00:00 +28°C° 0 mm 4 mps 753 mmHg 50%
    01:00 +27°C° 0 mm 4 mps 753 mmHg 50%
    02:00 +27°C° 0 mm 4 mps 753 mmHg 51%
    03:00 +27°C° 0 mm 4 mps 753 mmHg 52%
    04:00 +26°C° 0.1 mm 3 mps 753 mmHg 53%
    05:00 +26°C° 0.1 mm 2 mps 753 mmHg 55%
    06:00 +26°C° 0.1 mm 2 mps 754 mmHg 56%
    07:00 +28°C° 0 mm 2 mps 754 mmHg 51%
    08:00 +29°C° 0 mm 2 mps 754 mmHg 46%
    09:00 +31°C° 0 mm 2 mps 754 mmHg 41%
    10:00 +33°C° 0 mm 3 mps 754 mmHg 36%
    11:00 +35°C° 0 mm 4 mps 753 mmHg 31%
    12:00 +37°C° 0 mm 4 mps 753 mmHg 26%
    13:00 +39°C° 0 mm 5 mps 753 mmHg 24%
    14:00 +40°C° 0 mm 5 mps 753 mmHg 23%
    15:00 +41°C° 0 mm 5 mps 753 mmHg 21%
    16:00 +40°C° 0 mm 5 mps 753 mmHg 22%
    17:00 +39°C° 0 mm 5 mps 753 mmHg 23%
    18:00 +37°C° 0 mm 5 mps 753 mmHg 24%
    19:00 +35°C° 0 mm 5 mps 753 mmHg 29%
    20:00 +33°C° 0 mm 4 mps 754 mmHg 35%
    21:00 +30°C° 0 mm 4 mps 754 mmHg 40%
    22:00 +29°C° 0.1 mm 4 mps 754 mmHg 44%
    23:00 +28°C° 0.1 mm 4 mps 754 mmHg 48%

    24 August, Saturday

    Time Temperature Precipitation Wind Pressure Humidity
    00:00 +27°C° 0.1 mm 3 mps 754 mmHg 52%
    01:00 +27°C° 0 mm 3 mps 754 mmHg 55%
    02:00 +26°C° 0 mm 2 mps 754 mmHg 58%
    03:00 +26°C° 0 mm 2 mps 754 mmHg 61%
    04:00 +26°C° 0 mm 1 mps 754 mmHg 61%
    05:00 +26°C° 0 mm 1 mps 754 mmHg 61%
    06:00 +26°C° 0 mm 1 mps 754 mmHg 61%
    07:00 +27°C° 0 mm 1 mps 754 mmHg 55%
    08:00 +29°C° 0 mm 2 mps 754 mmHg 49%
    09:00 +30°C° 0 mm 2 mps 754 mmHg 43%
    10:00 +32°C° 0 mm 2 mps 754 mmHg 39%
    11:00 +34°C° 0 mm 2 mps 754 mmHg 34%
    12:00 +35°C° 0 mm 1 mps 754 mmHg 30%
    13:00 +36°C° 0 mm 2 mps 754 mmHg 28%
    14:00 +37°C° 0 mm 2 mps 754 mmHg 25%
    15:00 +38°C° 0 mm 2 mps 754 mmHg 22%
    16:00 +38°C° 0 mm 2 mps 754 mmHg 24%
    17:00 +37°C° 0 mm 3 mps 754 mmHg 27%
    18:00 +36°C° 0 mm 3 mps 754 mmHg 30%
    19:00 +34°C° 0 mm 5 mps 755 mmHg 36%
    20:00 +32°C° 0 mm 6 mps 755 mmHg 42%
    21:00 +29°C° 0 mm 8 mps 755 mmHg 48%
    22:00 +29°C° 0 mm 7 mps 755 mmHg 49%
    23:00 +29°C° 0 mm 5 mps 755 mmHg 50%

    25 August, Sunday

    Time Temperature Precipitation Wind Pressure Humidity
    00:00 +29°C° 0 mm 4 mps 755 mmHg 52%
    01:00 +28°C° 0 mm 3 mps 755 mmHg 52%
    02:00 +28°C° 0 mm 2 mps 755 mmHg 52%
    03:00 +28°C° 0 mm 2 mps 755 mmHg 52%
    04:00 +28°C° 0.1 mm 2 mps 755 mmHg 54%
    05:00 +27°C° 0.1 mm 2 mps 755 mmHg 56%
    06:00 +27°C° 0.1 mm 2 mps 756 mmHg 58%
    07:00 +27°C° 0 mm 2 mps 756 mmHg 57%
    08:00 +28°C° 0 mm 2 mps 756 mmHg 56%
    09:00 +28°C° 0 mm 2 mps 756 mmHg 54%
    10:00 +29°C° 0 mm 2 mps 756 mmHg 50%
    11:00 +31°C° 0 mm 1 mps 756 mmHg 45%
    12:00 +32°C° 0 mm 1 mps 755 mmHg 41%
    13:00 +35°C° 0 mm 2 mps 755 mmHg 34%
    14:00 +36°C° 0 mm 4 mps 755 mmHg 28%
    15:00 +39°C° 0 mm 5 mps 755 mmHg 21%
    16:00 +37°C° 0 mm 5 mps 755 mmHg 21%
    17:00 +36°C° 0 mm 5 mps 755 mmHg 21%
    18:00 +35°C° 0 mm 5 mps 755 mmHg 21%
    19:00 +34°C° 0 mm 4 mps 755 mmHg 24%
    20:00 +32°C° 0 mm 4 mps 755 mmHg 27%
    21:00 +29°C° 0 mm 3 mps 755 mmHg 30%
    22:00 +29°C° 0 mm 3 mps 755 mmHg 37%
    23:00 +28°C° 0 mm 2 mps 755 mmHg 43%

    26 August, Monday

    Time Temperature Precipitation Wind Pressure Humidity
    00:00 +27°C° 0 mm 2 mps 755 mmHg 49%
    01:00 +26°C° 0 mm 2 mps 755 mmHg 52%
    02:00 +25°C° 0 mm 2 mps 755 mmHg 55%
    03:00 +25°C° 0 mm 1 mps 755 mmHg 57%
    04:00 +25°C° 0 mm 1 mps 755 mmHg 57%
    05:00 +25°C° 0 mm 1 mps 755 mmHg 57%
    06:00 +25°C° 0 mm 1 mps 756 mmHg 57%
    07:00 +27°C° 0 mm 2 mps 756 mmHg 50%
    08:00 +28°C° 0 mm 2 mps 756 mmHg 43%
    09:00 +30°C° 0 mm 2 mps 756 mmHg 36%
    10:00 +31°C° 0 mm 3 mps 756 mmHg 32%
    11:00 +34°C° 0 mm 4 mps 756 mmHg 28%
    12:00 +35°C° 0 mm 5 mps 756 mmHg 24%
    13:00 +36°C° 0 mm 5 mps 756 mmHg 23%
    14:00 +36°C° 0 mm 6 mps 756 mmHg 22%
    15:00 +36°C° 0 mm 6 mps 757 mmHg 21%
    16:00 +36°C° 0 mm 6 mps 757 mmHg 23%
    17:00 +35°C° 0 mm 5 mps 757 mmHg 24%
    18:00 +34°C° 0 mm 5 mps 757 mmHg 26%
    19:00 +33°C° 0 mm 5 mps 758 mmHg 30%
    20:00 +30°C° 0 mm 5 mps 758 mmHg 33%
    21:00 +29°C° 0 mm 5 mps 759 mmHg 37%
    22:00 +28°C° 0 mm 4 mps 759 mmHg 42%
    23:00 +27°C° 0 mm 4 mps 759 mmHg 46%
    Show more